[[{"header":{"parameterUnit":"m.s-1","parameterCategory":1,"la1":30.2991,"la2":30.254,"lo1":-89.0895,"lo2":-89.0444,"dy":0.0017,"dx":0.0017,"nx":28,"ny":28,"refTime":"2023-10-09T09:00:00:Z","depth":0,"parameterNumber":2,"parameterNumberName":"U-component_of_WINDS"},"data":[0,0,0,0,0,0,0,0,0,0,0,0,0,0,0,0,0,0,0,0,0,0,0,0,0,0,0,0,0,0,0,0,0,0,0,0,0,0,0,0,0,0,0,0,0,0,0,0,0,0,0,0,0,0,0,0,0,0,0.3448,0.3449,0,0.3481,0.3482,0.3482,0.3504,0.3504,0.3504,0.3504,0.3537,0.3538,0.3539,0,0,0,0,0,0,0,0,0,0,0,0,0,0.3403,0.3404,0.3448,0.3449,0.3449,0.3481,0.3482,0.3482,0.3503,0.3504,0.3504,0.3504,0.3537,0.3538,0.3539,0,0,0,0,0,0,0,0,0,0,0,0,0,0.3428,0.3404,0.3448,0.3464,0.3465,0.3481,0.3482,0.3482,0.3503,0.3504,0.3504,0.3504,0.3537,0.3538,0.3539,0.3542,0,0,0.3543,0.3543,0,0,0,0,0,0,0,0,0.3426,0.343,0.3461,0.3463,0.3465,0.3489,0.3478,0.3502,0.3503,0.3489,0.3504,0.3504,0.3521,0.3523,0.3529,0.3544,0.3545,0.3543,0.3543,0.3544,0.3544,0,0,0,0,0,0,0,0.3425,0.3428,0.3461,0.3461,0.3464,0.3469,0.3472,0.3483,0.3503,0.349,0.3492,0.3496,0.3522,0.3528,0.353,0.3545,0.3543,0.3544,0.3544,0.3545,0.3563,0.3563,0,0,0,0,0,0,0.3421,0.3427,0.346,0.3462,0.3446,0.3469,0.3474,0.3481,0.3503,0.3507,0.3495,0.3496,0.3526,0.3529,0.3531,0.3536,0.3544,0.3545,0.3546,0.3563,0.3563,0.3563,0,0,0,0,0,0,0.342,0.3423,0.3459,0.3445,0.345,0.347,0.3478,0.3481,0.3487,0.3507,0.3511,0.3498,0.3526,0.353,0.3539,0.3537,0.3545,0.3546,0.3563,0.3563,0.3563,0.3545,0,0,0,0,0,0,0.3418,0.3423,0.3425,0.3445,0.3451,0.3467,0.3478,0.3482,0.3489,0.3491,0.351,0.3514,0.3527,0.3537,0.354,0.3539,0.3547,0.3564,0.3563,0.3563,0.3546,0.3544,0.3543,0,0,0,0,0,0.3416,0.3418,0.3425,0.3429,0.3453,0.3466,0.347,0.3484,0.3489,0.3491,0.3503,0.3513,0.3537,0.3538,0.3541,0.3541,0.3564,0.3563,0.3563,0.3547,0.3545,0.3543,0,0,0,0,0,0,0.3397,0.3421,0.3429,0.3437,0.3449,0.347,0.3473,0.3482,0.3493,0.3494,0.3512,0.3516,0.3523,0.3533,0.3534,0.3544,0.3552,0.3552,0.3538,0.3536,0.3535,0.3532,0.3548,0,0,0,0,0,0.3394,0.3403,0.3424,0.3429,0.3435,0.3453,0.3459,0.3469,0.3483,0.3488,0.3501,0.3514,0.3524,0.3531,0.3541,0.3547,0.3551,0.3548,0.3547,0.3545,0.3545,0.3549,0.3547,0.3561,0.3561,0.3561,0,0,0.3388,0.3402,0.3407,0.3426,0.3437,0.3445,0.3457,0.3466,0.3472,0.3489,0.3499,0.3509,0.3524,0.3532,0.3536,0.354,0.3542,0.3545,0.3543,0.3544,0.3548,0.3547,0.3545,0.3561,0.3561,0.3561,0,0,0.338,0.3392,0.3398,0.3408,0.3424,0.3436,0.3437,0.3456,0.3463,0.3473,0.3486,0.3494,0.3511,0.3521,0.3529,0.3524,0.3533,0.3527,0.3519,0.3521,0.352,0.3519,0.3517,0.3516,0.3527,0.3527,0.3526,0,0.337,0.3384,0.3399,0.3407,0.3415,0.3431,0.3436,0.3446,0.3464,0.3469,0.3473,0.3495,0.3506,0.3516,0.3515,0.352,0.3522,0.3525,0.3519,0.3518,0.3518,0.3516,0.3515,0.3526,0.3526,0.3526,0.3526,0,0.337,0.338,0.3382,0.34,0.3408,0.3414,0.343,0.3437,0.3446,0.3457,0.3466,0.348,0.3493,0.3496,0.3505,0.3507,0.3509,0.3516,0.3524,0.3515,0.3514,0.3513,0.3524,0.3525,0.3525,0.3525,0,0,0.3352,0.3378,0.3379,0.3387,0.3405,0.3413,0.3419,0.3432,0.3437,0.3449,0.3455,0.3469,0.3475,0.3484,0.3494,0.3496,0.3491,0.3503,0.3504,0.35,0.3493,0.3487,0.3486,0.3497,0.3497,0.3497,0.3491,0,0.3348,0.3362,0.3375,0.3384,0.3392,0.3407,0.3413,0.3425,0.3435,0.3443,0.3454,0.3463,0.3471,0.3476,0.3479,0.3491,0.349,0.3491,0.3502,0.3503,0.3498,0.3486,0.348,0.3474,0.3491,0.3491,0.3491,0,0.3344,0.3356,0.3365,0.3382,0.3386,0.3391,0.3404,0.3412,0.3425,0.3432,0.3441,0.3451,0.3459,0.3465,0.3475,0.3476,0.3481,0.3488,0.3488,0.3489,0.3496,0.3487,0.3473,0.3472,0.349,0.349,0.349,0,0.333,0.3347,0.3355,0.3362,0.3382,0.3385,0.3394,0.3407,0.3414,0.3424,0.3429,0.344,0.3446,0.3455,0.3468,0.3471,0.3476,0.3484,0.3482,0.3482,0.3483,0.3482,0.3469,0.3486,0.3486,0.3486,0.3486,0,0.3323,0.3328,0.3349,0.3354,0.336,0.3375,0.338,0.339,0.3402,0.3408,0.3421,0.3427,0.3444,0.3452,0.3462,0.3468,0.3471,0.3477,0.3479,0.3475,0.3475,0.3479,0.348,0.3486,0.3486,0.3486,0.3486,0,0.3308,0.3322,0.3332,0.335,0.3355,0.3358,0.3374,0.3378,0.3389,0.3397,0.34,0.3416,0.3425,0.3439,0.3453,0.346,0.3464,0.3469,0.346,0.3462,0.3459,0.3459,0.3448,0.3447,0.3464,0.3464,0.3464,0,0.3303,0.3307,0.3326,0.3331,0.3339,0.3348,0.3355,0.337,0.3376,0.3391,0.3394,0.3404,0.3413,0.3428,0.344,0.3451,0.3455,0.3451,0.3457,0.3453,0.3455,0.3454,0.3455,0.3449,0.3449,0.3449,0.3449,0,0.3292,0.3299,0.3308,0.332,0.3328,0.3337,0.3348,0.3351,0.3368,0.3375,0.3385,0.3392,0.3405,0.3415,0.3427,0.3435,0.3444,0.3446,0.3447,0.3443,0.3437,0.344,0.3456,0.3447,0.3447,0.3447,0.3447,0.3447,0.3282,0.3286,0.33,0.331,0.3319,0.3328,0.3333,0.3344,0.3353,0.3365,0.3374,0.3383,0.3395,0.3412,0.3419,0.3426,0.343,0.343,0.343,0.343,0.3429,0.3436,0.3428,0.3429,0.3429,0.3429,0.3429,0,0.3271,0.3281,0.329,0.3304,0.3311,0.3319,0.3331,0.3337,0.3345,0.3355,0.3364,0.3375,0.3384,0.3397,0.3408,0.3411,0.3415,0.3413,0.3413,0.3414,0.3425,0.3424,0.3409,0.3409,0.3409,0.3409,0.3409,0.3409,0.3267,0.3274,0.3282,0.3294,0.3303,0.3313,0.3319,0.3327,0.3336,0.3347,0.3355,0.3364,0.3375,0.3386,0.3395,0.3398,0.3401,0.3398,0.3403,0.3412,0.3414,0.3415,0.3414,0.3398,0.3398,0.3392,0.3392,0.3392]},{"header":{"parameterUnit":"m.s-1","parameterCategory":1,"la1":30.2991,"la2":30.254,"lo1":-89.0895,"lo2":-89.0444,"dy":0.0017,"dx":0.0017,"nx":28,"ny":28,"refTime":"2023-10-09T09:00:00:Z","depth":0,"parameterNumber":3,"parameterNumberName":"V-component_of_WINDS"},"data":[0,0,0,0,0,0,0,0,0,0,0,0,0,0,0,0,0,0,0,0,0,0,0,0,0,0,0,0,0,0,0,0,0,0,0,0,0,0,0,0,0,0,0,0,0,0,0,0,0,0,0,0,0,0,0,0,0,0,3.2884,3.2884,0,3.2869,3.2869,3.2868,3.2889,3.289,3.2891,3.2892,3.2871,3.2869,3.2868,0,0,0,0,0,0,0,0,0,0,0,0,0,3.2928,3.2928,3.2884,3.2884,3.2884,3.2869,3.2869,3.2868,3.2889,3.289,3.2891,3.2892,3.2871,3.287,3.2868,0,0,0,0,0,0,0,0,0,0,0,0,0,3.2911,3.2927,3.2885,3.2893,3.2893,3.2869,3.2869,3.2868,3.2889,3.289,3.2891,3.2892,3.2872,3.287,3.2868,3.2833,0,0,3.2862,3.2861,0,0,0,0,0,0,0,0,3.2912,3.2909,3.2892,3.2892,3.2893,3.2882,3.2876,3.2856,3.2889,3.2891,3.2892,3.2893,3.2873,3.2871,3.2866,3.2832,3.2831,3.2862,3.2861,3.286,3.2859,0,0,0,0,0,0,0,3.2913,3.291,3.2878,3.2891,3.2892,3.2896,3.2895,3.2873,3.2875,3.289,3.2892,3.289,3.2874,3.2867,3.2865,3.2831,3.2862,3.286,3.2859,3.2858,3.2768,3.2766,0,0,0,0,0,0,3.2914,3.2911,3.2879,3.2878,3.2905,3.2894,3.2893,3.2884,3.2876,3.2876,3.2889,3.2891,3.287,3.2868,3.2865,3.2823,3.286,3.2858,3.2857,3.2769,3.2767,3.2766,0,0,0,0,0,0,3.2914,3.2911,3.2879,3.2895,3.2891,3.2892,3.2883,3.2884,3.2877,3.2875,3.2875,3.2883,3.2871,3.2867,3.2841,3.2823,3.2857,3.2855,3.277,3.2768,3.2767,3.274,0,0,0,0,0,0,3.2916,3.2911,3.2898,3.2894,3.289,3.2857,3.2882,3.2882,3.2875,3.2877,3.2869,3.2868,3.2872,3.2844,3.2839,3.2821,3.2854,3.2772,3.2769,3.2767,3.2742,3.2737,3.2733,0,0,0,0,0,3.2917,3.289,3.2898,3.2894,3.2875,3.2856,3.2853,3.2859,3.2873,3.286,3.2859,3.2869,3.2826,3.2841,3.2836,3.2817,3.2773,3.277,3.2767,3.2745,3.2738,3.2733,0,0,0,0,0,0,3.289,3.289,3.2898,3.2869,3.2863,3.286,3.2843,3.2852,3.284,3.2843,3.2849,3.2847,3.2819,3.2815,3.2832,3.2782,3.2801,3.2797,3.2786,3.278,3.2775,3.2776,3.2852,0,0,0,0,0,3.2882,3.2868,3.2867,3.2842,3.2839,3.2842,3.2833,3.2839,3.2831,3.2828,3.2825,3.2816,3.2801,3.279,3.2776,3.2742,3.274,3.2727,3.2722,3.2718,3.2714,3.2696,3.269,3.2757,3.2757,3.2757,0,0,3.2862,3.286,3.2851,3.2837,3.2832,3.2817,3.2839,3.2821,3.2809,3.2825,3.28,3.2798,3.2788,3.2758,3.2745,3.2754,3.2696,3.2715,3.2712,3.271,3.2693,3.2686,3.2681,3.2755,3.2755,3.2755,0,0,3.2819,3.2817,3.2796,3.2791,3.2785,3.2787,3.2782,3.2778,3.2777,3.2753,3.2765,3.275,3.2723,3.2716,3.2709,3.2665,3.2673,3.266,3.2635,3.2617,3.2612,3.2607,3.2591,3.2585,3.2656,3.2656,3.2656,0,3.2795,3.2774,3.2783,3.2765,3.2758,3.2774,3.2752,3.2746,3.2735,3.2729,3.274,3.2708,3.2703,3.2671,3.2661,3.2655,3.2648,3.266,3.2612,3.2607,3.2603,3.2588,3.2581,3.2654,3.2654,3.2655,3.2655,0,3.2745,3.273,3.2713,3.2704,3.2695,3.2675,3.268,3.267,3.2676,3.2677,3.2652,3.2646,3.2631,3.2624,3.2629,3.2594,3.26,3.2611,3.263,3.2595,3.258,3.2575,3.2652,3.2652,3.2653,3.2653,0,0,3.2683,3.268,3.2674,3.267,3.2665,3.2653,3.2633,3.262,3.2611,3.2603,3.2586,3.2564,3.2575,3.2567,3.2571,3.2556,3.2521,3.2569,3.2569,3.256,3.248,3.2471,3.2464,3.2527,3.2526,3.2525,3.2481,0,3.264,3.2608,3.2616,3.2583,3.2569,3.2584,3.2567,3.2562,3.2562,3.2549,3.2549,3.2533,3.2549,3.2544,3.253,3.2528,3.2505,3.2531,3.251,3.2509,3.2511,3.2457,3.2447,3.2406,3.2475,3.2474,3.2474,0,3.2585,3.2577,3.2543,3.2541,3.2535,3.252,3.2509,3.2497,3.249,3.2492,3.2484,3.2491,3.2471,3.2491,3.2462,3.248,3.2472,3.247,3.2469,3.2466,3.2489,3.2452,3.2393,3.2386,3.2465,3.2466,3.2466,0,3.2543,3.2523,3.2501,3.2497,3.2494,3.2483,3.2481,3.2476,3.2468,3.2458,3.2452,3.244,3.2432,3.2421,3.2425,3.244,3.2395,3.2416,3.2395,3.2395,3.2384,3.2384,3.2322,3.238,3.238,3.238,3.238,0,3.2493,3.2472,3.2482,3.2468,3.2445,3.2454,3.243,3.2429,3.2425,3.241,3.2422,3.2408,3.2414,3.24,3.2403,3.2378,3.2375,3.2375,3.2375,3.2373,3.2373,3.2367,3.237,3.2378,3.2379,3.2379,3.2379,0,3.2441,3.2447,3.2424,3.2424,3.2423,3.2406,3.2405,3.2392,3.2394,3.2375,3.2371,3.2373,3.2358,3.2361,3.2342,3.2344,3.2314,3.2318,3.2316,3.2317,3.2296,3.2297,3.2226,3.2217,3.2281,3.2281,3.228,0,3.2409,3.2393,3.2392,3.2384,3.2382,3.2368,3.2361,3.2369,3.2361,3.2353,3.234,3.2326,3.2315,3.2288,3.2287,3.2273,3.2277,3.2253,3.2275,3.2274,3.2276,3.2277,3.2275,3.2249,3.2248,3.2247,3.2247,0,3.2351,3.2355,3.2344,3.2335,3.2326,3.2319,3.2313,3.2305,3.2313,3.2302,3.2287,3.2279,3.2262,3.2247,3.2234,3.223,3.2239,3.224,3.2235,3.2232,3.2231,3.2231,3.2304,3.2242,3.2242,3.2242,3.2243,3.2243,3.2307,3.2294,3.2292,3.228,3.2276,3.227,3.2258,3.2259,3.2248,3.2235,3.2241,3.2223,3.2217,3.2202,3.2197,3.2182,3.2191,3.2182,3.218,3.2178,3.2175,3.2234,3.218,3.218,3.218,3.218,3.218,0,3.2249,3.2249,3.2238,3.223,3.222,3.2232,3.2226,3.2216,3.2201,3.2196,3.2186,3.2168,3.2154,3.2153,3.2139,3.2128,3.2132,3.2124,3.2124,3.2123,3.2168,3.2175,3.2121,3.2121,3.2121,3.2121,3.2121,3.2121,3.2218,3.2197,3.2201,3.2178,3.2177,3.2161,3.2157,3.2151,3.2147,3.2128,3.2117,3.2117,3.2113,3.2099,3.2087,3.2086,3.2081,3.2071,3.2072,3.2114,3.212,3.2126,3.2131,3.207,3.207,3.2029,3.2028,3.2028]}]]